Location: Berg
(48.4333°N, 13.9167°E)
Time: 05:36:02
(UTC+00:00)

USA 116 - Pass Details

Date: 18 September 2020
Orbit: 405 x 834 km, 97.9° (Epoch: 18 November)

Event Time Altitude Azimuth Distance (km) Brightness Sun altitude
Rises 18:17:03 0° 9° (N) 2,417 7.1 -11.8°
Reaches altitude 10° 18:19:01 10° 5° (N) 1,581 6.2 -12.1°
Maximum altitude 18:22:18 54° 287° (WNW) 587 4.3 -12.6°
Drops below altitude 10° 18:25:55 10° 210° (SSW) 1,737 6.4 -13.2°
Sets 18:28:09 0° 206° (SSW) 2,688 7.3 -13.6°
